User: anonymous   Login
Location: ???????
(52.3000°N, 54.4667°E)
Time: 21:35:24
(UTC+00:00)
Language:

CZ-2C R/B - Orbit

View from above orbital plane
View from above orbital plane
View from above satellite
View from above satellite

Ground track
Ground track

The orbit data is extracted from the following two-line orbital elements,

1 28480U 04046B   20093.13047265 -.00000022  00000-0  63632-5 0  9998
2 28480  98.0887 133.9538 0143178  91.1135 333.9397 14.25719635799566
Epoch (UTC): 02 April 2020 03:07:52
Eccentricity: 0.0143178
inclination: 98.0887°
perigee height: 703 km
apogee height: 909 km
right ascension of ascending node: 133.9538°
argument of perigee: 91.1135°
revolutions per day: 14.25719635
mean anomaly at epoch: 333.9397°
orbit number at epoch: 79956

The dashed part of the orbit path shows where the satellite is in the earth's shadow,  

DLR